Dewpoint
72 71 72 71 72 72 71 69 57 61 60 55 56 58 57 63 63 61 62 64 63 65 65 67 68 65 63 61 62 63 62 58 60 53 51 66 70 71 71 72 73 73 73 74 74 75 75 76 76 76 76 77 76 76 76 77 77 77 77 76 76 76 76 76 76 76 76 75 75 76 75 76 75 75 75 75 75 75 75 75 74 75 75 75 75 75 75 74 74 74 74 74 73 74 74 73 74
71 71 72 73 74 71 65 69 59 57 58 56 56 61 60 62 62 61 62 63 61 63 63 64 64 63 67 64 63 62 62 65 66 65 68 69 70 70 72 73 73 73 73 73 74 74 75 76 77 76 76 76 77 76 77 76 76 77 76 76 76 76 76 76 76 76 74 74 75 75 75 75 75 75 75 75 75 75 75 75 75 75 75 75 74 74 75 75 74 74 74 74 74 74 74 74 75
70 71 72 73 73 70 68 67 56 55 53 51 56 60 64 62 62 63 63 64 61 63 64 64 65 66 66 64 62 60 61 66 66 67 67 70 69 71 72 73 73 73 73 74 74 74 74 76 77 77 76 77 76 77 77 77 77 77 76 76 76 76 76 75 76 75 75 75 75 75 75 75 74 74 74 74 74 75 75 75 75 75 75 75 75 75 75 74 74 74 74 74 74 74 74 75 75
69 70 70 71 65 69 62 62 58 56 54 54 56 61 61 62 62 63 63 61 63 64 62 62 61 64 64 60 62 64 64 64 66 67 67 68 68 71 72 73 74 73 74 74 74 74 74 76 77 77 76 77 77 77 77 76 77 77 76 76 76 76 76 76 75 75 75 75 75 75 75 75 75 75 75 74 74 75 75 75 75 75 75 75 74 75 75 75 75 75 74 74 74 74 74 75 74
68 70 71 69 67 61 62 61 59 58 54 57 56 60 61 62 64 64 63 62 63 65 64 61 61 65 67 62 62 61 63 66 66 67 67 68 71 71 72 73 73 73 73 74 73 74 74 76 77 77 77 77 77 77 76 77 76 76 76 76 76 76 76 76 76 76 75 74 75 75 74 75 75 74 74 74 74 75 75 75 76 75 74 75 75 75 75 75 75 74 75 75 74 74 74 74 74
69 70 72 72 65 69 65 59 57 56 58 62 59 61 63 63 63 64 62 62 66 64 66 60 61 63 61 61 62 63 65 62 66 67 68 69 71 71 72 73 73 73 73 73 73 74 75 77 77 77 77 77 77 76 76 76 76 76 77 77 76 76 76 76 76 76 76 75 75 75 75 75 75 75 75 75 75 75 75 75 76 75 75 75 75 75 75 75 75 74 75 75 75 75 74 74 74
70 71 71 70 69 68 59 58 57 59 58 60 62 61 63 63 63 64 59 62 62 61 62 59 61 60 59 61 63 64 66 66 66 67 69 70 71 71 72 72 72 72 73 74 74 75 75 77 77 77 77 77 76 76 76 77 76 77 77 76 76 76 76 76 76 76 76 76 75 75 75 75 76 75 74 75 76 75 75 75 75 75 75 75 75 75 75 75 75 75 74 74 74 74 74 74 74
73 68 67 64 62 63 59 59 59 61 60 58 63 63 62 63 62 63 59 59 58 60 58 59 59 60 59 62 61 65 66 66 67 69 70 70 70 71 71 72 72 72 73 74 74 75 77 77 77 77 77 76 76 76 76 77 77 77 77 76 76 76 76 76 76 76 75 75 75 75 75 75 75 75 75 75 75 75 75 75 75 76 76 75 75 75 75 74 74 75 74 74 74 74 74 74 74
72 70 70 65 59 60 58 57 57 63 60 59 61 64 66 66 62 64 62 63 59 59 57 59 60 59 61 62 62 64 66 67 68 70 69 70 70 71 71 71 72 72 73 74 75 76 76 78 77 77 77 76 76 77 76 77 77 77 77 76 76 76 76 76 76 75 75 75 75 75 74 75 75 75 75 74 75 75 75 75 75 75 76 75 74 75 75 75 75 74 74 74 74 74 74 74 74
71 69 63 62 61 56 56 55 53 55 57 59 60 63 63 64 63 65 65 61 60 58 58 60 61 60 62 62 63 64 66 68 68 68 69 70 70 70 70 71 72 73 74 74 75 76 76 78 77 77 77 76 76 76 76 77 77 77 76 76 76 76 76 76 75 75 75 75 75 75 75 75 74 74 75 75 75 74 74 74 74 74 74 75 75 75 74 74 74 74 74 75 74 74 74 74 73
66 68 68 61 57 54 54 53 56 56 58 61 61 63 65 65 63 64 64 64 58 59 60 61 61 62 62 63 63 66 67 68 67 67 69 69 69 69 69 71 72 73 74 75 76 76 77 76 76 77 77 76 76 76 76 77 77 77 77 76 76 76 76 76 76 75 75 75 75 75 75 75 75 74 75 75 75 75 74 74 74 74 74 75 75 75 74 75 75 75 75 75 75 74 74 73 73
63 63 64 58 55 53 56 55 55 56 59 59 58 64 67 64 64 62 63 62 59 60 60 61 61 63 62 63 63 66 67 67 67 68 68 69 68 68 70 72 73 73 74 75 76 76 76 75 76 77 77 77 76 77 76 77 77 77 77 77 76 76 76 76 75 75 75 75 75 76 75 75 75 75 75 75 75 75 74 74 74 75 75 75 75 75 75 75 75 75 75 75 75 75 74 74 74
64 64 62 57 55 57 56 56 56 57 59 58 58 61 68 62 62 63 63 58 58 59 59 62 63 64 62 63 64 66 66 67 67 68 68 67 67 68 71 72 73 74 74 75 75 76 75 75 76 76 77 77 76 76 77 77 77 77 77 77 76 76 76 75 75 75 75 76 75 75 75 75 75 75 75 75 75 75 75 74 74 75 74 75 75 75 75 75 75 75 75 75 75 75 75 75 74
65 64 62 56 60 57 56 55 56 52 54 57 59 63 63 62 63 63 63 57 57 57 61 63 63 64 63 64 65 64 65 67 67 67 66 66 67 69 72 73 73 73 74 75 75 75 75 75 76 76 75 75 75 76 77 77 77 77 77 77 76 76 76 75 75 76 76 76 76 75 75 76 75 75 75 75 75 75 75 75 75 75 75 75 75 75 75 75 75 75 75 75 75 75 75 75 74
65 65 64 59 57 59 57 51 51 51 52 57 59 60 61 64 66 62 64 59 57 60 62 63 64 63 62 63 63 63 65 66 67 66 66 66 67 71 73 73 72 73 74 75 75 75 74 74 75 75 76 76 76 75 76 76 77 77 77 77 77 76 76 75 76 75 76 76 76 76 76 76 76 76 76 75 75 75 75 75 75 75 75 75 75 75 76 76 75 75 75 76 76 76 76 74 74
65 64 63 55 55 55 53 51 53 53 53 58 61 60 61 62 64 61 62 61 58 60 61 61 63 59 64 63 63 65 65 66 66 66 66 67 69 72 72 72 72 73 74 75 75 74 74 74 75 75 75 76 76 76 76 76 77 77 77 77 77 76 76 75 76 75 75 76 76 76 76 76 75 75 76 75 76 76 75 75 75 75 75 75 76 76 76 75 76 76 76 76 76 76 76 74 73
65 64 57 56 54 54 53 49 50 49 54 56 60 59 58 59 60 64 62 62 58 58 59 62 61 64 63 63 65 65 65 66 67 66 67 68 70 71 71 71 71 72 73 74 74 74 74 74 75 75 75 76 76 76 76 76 76 77 77 77 76 76 76 76 76 75 76 76 76 76 76 76 75 75 75 76 75 76 75 75 75 75 75 75 75 76 76 76 76 76 76 76 76 76 76 74 74
62 60 57 55 55 53 54 53 51 51 54 55 57 60 60 57 59 61 61 61 58 58 58 59 63 63 63 65 66 66 66 66 66 66 67 68 69 69 70 70 70 70 72 73 74 74 74 74 75 75 75 75 76 76 76 76 76 76 76 76 76 76 76 76 76 76 76 75 76 76 75 76 75 74 75 76 76 75 75 75 75 75 75 75 76 76 76 76 76 76 76 76 75 75 74 75 74
58 58 56 54 54 54 54 54 52 52 52 56 57 58 59 58 57 58 59 57 57 57 58 60 61 62 64 65 66 66 66 66 66 66 67 67 68 69 69 69 69 70 71 72 73 73 74 74 75 75 75 75 76 76 76 76 76 76 76 76 76 77 77 77 76 77 76 75 76 75 77 76 75 75 76 77 77 76 77 75 75 75 75 76 76 76 76 76 76 76 76 76 75 75 76 75 75
59 56 54 55 54 55 53 53 53 55 55 56 57 57 57 57 57 58 58 57 58 57 57 58 61 62 63 64 65 65 66 66 66 66 67 67 68 68 69 68 68 70 71 72 72 73 74 74 74 74 75 75 75 76 76 76 76 76 76 76 76 76 76 77 76 76 76 75 76 76 76 76 76 75 77 76 76 76 75 75 75 75 76 76 76 76 76 75 75 75 75 76 76 79 75 75 74
58 56 54 54 55 53 55 52 53 54 54 55 56 56 55 56 55 55 57 57 57 57 57 58 61 62 62 64 64 65 65 65 65 66 67 67 67 68 69 68 68 69 70 71 72 72 73 74 74 74 74 74 75 75 76 76 76 76 76 76 75 75 76 76 76 76 76 75 75 76 76 76 76 76 76 75 76 75 74 75 75 75 76 75 77 75 76 76 76 75 76 77 75 76 75 74 75
54 55 55 54 54 52 53 53 50 52 52 53 54 53 52 54 53 54 56 56 56 56 57 60 62 62 62 63 64 64 64 65 65 66 67 67 67 68 68 68 69 69 70 70 71 72 73 73 73 73 73 73 74 74 75 76 76 75 75 75 75 75 75 75 75 75 75 75 75 76 76 76 75 75 75 75 75 74 74 74 75 74 75 75 78 75 75 75 75 75 75 75 75 75 75 75 75
53 52 52 53 52 50 54 52 51 50 50 53 52 52 52 51 55 53 53 55 55 57 58 60 62 62 62 63 63 63 64 65 65 66 66 66 66 67 68 68 68 68 69 70 70 72 72 72 72 73 72 73 73 74 75 76 75 75 75 75 75 75 75 75 75 75 75 75 75 76 75 75 75 75 75 75 74 74 74 75 74 75 75 75 76 75 75 75 75 75 74 75 74 74 75 74 75
54 51 49 50 51 50 52 52 51 50 51 52 52 53 50 52 52 53 52 53 55 58 59 60 62 62 62 63 63 63 64 65 65 66 66 66 66 67 68 68 68 68 69 69 70 71 72 71 72 72 72 72 72 73 74 75 75 74 74 76 75 75 75 74 74 74 75 76 75 76 75 74 74 74 75 74 75 75 74 74 75 74 75 74 76 75 75 74 75 74 75 74 74 74 73 74 74
52 51 51 48 50 50 51 51 50 50 51 52 52 51 51 52 51 51 52 53 57 58 59 60 61 61 62 62 63 63 64 65 65 66 66 66 66 67 67 68 68 68 68 69 70 71 71 71 71 71 71 72 72 73 73 74 74 74 74 74 74 75 74 74 74 74 75 76 76 76 76 74 74 74 74 74 75 74 74 74 75 74 74 74 75 74 75 74 74 74 75 74 74 73 72 71 73
51 51 50 48 47 49 49 49 49 50 50 51 51 50 51 50 51 50 52 54 58 59 59 59 60 60 61 62 62 63 64 64 65 65 66 66 66 66 66 67 68 68 68 69 70 70 70 71 71 70 71 72 72 72 72 72 73 73 73 73 73 75 74 73 73 74 75 76 76 75 75 74 73 73 73 74 75 74 75 74 74 74 73 74 75 73 76 75 74 75 75 74 72 72 72 72 72
49 49 49 47 46 48 49 48 49 50 50 50 49 50 50 50 51 49 51 56 58 59 59 60 60 60 60 61 62 63 64 64 64 65 66 66 66 66 66 66 67 67 68 68 69 70 70 70 70 70 71 72 72 72 72 72 73 72 73 72 72 73 73 73 73 73 74 75 75 75 75 75 73 73 73 74 74 74 74 73 73 74 74 74 74 73 76 75 75 74 74 74 72 72 72 72 73
48 46 42 44 43 46 48 48 48 50 49 50 49 48 48 50 49 49 54 58 58 58 59 59 60 60 60 60 61 63 64 64 65 65 65 65 65 66 65 66 66 67 68 68 69 70 70 70 70 70 71 72 72 72 72 71 72 71 72 72 72 72 73 72 72 73 75 75 75 75 75 73 74 72 73 74 73 73 74 73 74 74 74 74 75 74 75 76 75 75 76 76 74 74 73 73 74
45 43 39 36 39 44 46 46 47 50 49 50 49 48 46 48 46 50 56 58 58 58 58 59 59 60 60 60 61 62 63 63 64 64 65 65 66 66 65 66 66 67 68 69 69 70 69 70 70 70 71 71 72 71 72 71 71 71 71 71 71 72 72 72 72 73 74 74 74 74 75 73 74 72 74 74 76 74 73 73 74 74 74 74 75 75 76 76 76 75 72 75 75 74 73 72 74
42 41 37 34 35 39 45 46 46 49 47 50 49 46 46 46 48 52 57 57 58 58 58 58 58 59 59 60 60 60 61 63 63 64 65 65 66 66 66 66 67 67 68 69 70 70 70 70 70 70 71 71 72 71 72 71 70 70 72 70 71 72 71 72 72 72 74 74 74 74 75 74 74 74 74 74 75 73 74 74 74 74 74 76 75 77 75 74 73 74 73 73 75 75 72 71 71
35 36 36 33 34 37 42 46 46 46 48 50 49 45 46 47 47 53 56 57 57 57 57 58 58 58 59 59 59 59 60 62 62 63 64 64 65 66 66 67 68 68 69 69 70 70 71 71 70 70 72 71 73 71 72 72 71 70 73 71 71 72 71 72 72 72 73 73 74 74 75 76 76 76 75 75 74 74 74 74 75 74 76 76 76 76 75 74 73 73 74 70 71 72 72 73 72
34 32 31 34 35 38 40 45 45 44 46 48 47 45 44 45 48 52 56 57 57 57 57 57 58 58 58 58 59 59 60 61 61 61 63 64 64 65 66 67 68 68 68 69 70 70 70 71 71 70 71 71 72 72 71 73 72 71 74 74 72 72 72 72 71 72 73 73 73 73 75 76 76 76 75 74 74 74 74 74 74 74 76 76 75 76 75 74 74 75 75 73 72 72 71 69 71
33 32 34 33 35 37 39 40 45 46 45 45 45 43 44 48 50 52 55 56 56 57 57 57 57 58 58 58 58 59 59 60 61 61 61 63 64 64 66 67 68 69 69 69 70 70 70 71 72 71 71 71 72 72 71 73 73 72 73 74 73 73 72 71 72 73 73 73 73 73 75 75 75 75 76 75 74 74 75 75 76 76 77 75 75 75 74 74 73 75 75 76 72 69 70 64 63
32 32 32 34 36 36 36 41 41 46 46 44 44 43 43 47 50 52 53 55 56 56 56 57 57 57 58 58 58 59 59 60 60 61 61 62 64 64 65 68 68 69 69 69 70 70 70 70 71 71 71 71 72 72 71 72 72 73 73 73 74 73 72 71 72 73 73 73 73 73 75 75 75 75 75 75 74 74 74 75 76 76 76 75 75 75 74 74 74 73 72 73 73 70 67 62 64
30 33 32 31 34 38 35 36 39 44 46 44 44 43 43 47 49 50 51 54 55 55 56 56 56 57 57 58 58 58 59 60 60 61 61 62 63 63 64 66 67 69 69 69 70 70 70 71 71 72 72 71 71 72 72 72 72 72 72 72 73 72 72 71 71 72 73 73 73 74 75 75 75 75 75 75 74 75 74 75 76 76 76 75 76 75 74 74 74 74 72 72 73 71 68 64 65
32 32 31 31 30 31 36 38 39 40 43 43 42 41 42 43 49 49 50 52 53 54 55 56 56 56 57 58 58 58 58 59 60 61 60 61 63 63 63 65 66 68 68 69 70 70 70 71 70 72 72 72 71 72 72 71 71 72 71 71 72 72 71 72 72 71 72 73 74 74 74 75 75 75 75 75 74 75 74 74 75 76 76 75 75 74 73 73 73 73 72 72 71 71 67 66 67
31 32 31 30 30 31 31 35 39 37 39 40 41 41 41 41 48 48 49 51 52 53 54 55 56 56 57 57 58 58 58 58 59 60 60 61 62 63 63 64 66 67 68 69 69 69 70 70 70 71 72 72 71 71 71 71 70 71 71 70 70 71 71 71 72 71 71 73 74 75 75 74 75 75 75 74 73 77 74 74 75 76 76 75 74 73 74 74 73 73 73 75 70 68 61 66 68
28 29 31 31 30 29 30 30 32 37 36 37 39 41 41 40 47 48 50 50 50 51 53 54 55 55 57 57 58 58 58 58 59 59 60 60 61 62 63 63 66 66 68 69 69 69 70 70 70 71 72 71 71 71 71 71 70 71 70 70 70 71 70 70 71 71 70 72 74 75 75 75 75 75 75 75 74 75 74 74 75 76 76 75 74 75 74 76 75 74 72 69 70 69 65 65 68
26 26 27 29 29 29 29 30 30 31 35 35 37 39 40 39 44 48 49 49 50 51 52 53 54 54 56 57 57 58 58 57 58 59 59 60 60 62 62 63 64 65 67 68 68 69 69 69 70 71 71 71 71 72 71 71 70 71 70 70 71 71 71 71 71 72 72 71 74 75 75 75 75 75 75 76 74 74 75 75 75 76 76 76 75 74 74 74 74 73 72 69 67 68 69 67 66
25 25 25 25 28 29 28 28 27 28 30 32 37 38 39 38 46 48 49 49 50 51 51 52 53 53 56 57 57 58 58 57 57 58 59 59 60 61 62 62 64 65 66 67 68 68 68 69 69 70 71 71 71 72 72 71 71 71 71 71 72 71 71 72 71 72 71 72 74 75 75 75 75 75 75 75 75 74 74 75 76 76 76 76 75 74 74 74 74 72 72 72 69 65 63 60 70
25 24 24 24 26 28 29 29 27 27 28 31 35 38 38 36 45 47 48 49 50 50 51 51 52 53 56 57 57 58 58 58 57 58 58 59 60 60 61 62 63 65 66 66 67 68 68 68 69 70 71 71 70 72 72 71 72 71 71 72 72 72 72 71 71 70 70 73 74 74 75 75 75 75 75 75 75 74 74 75 76 76 76 75 75 75 74 75 75 73 73 72 69 67 65 62 67
24 24 24 24 26 29 30 30 27 24 22 29 34 35 35 36 45 46 47 48 48 49 50 50 51 52 55 56 57 58 58 59 58 58 58 58 59 60 61 62 62 64 65 66 66 67 68 68 69 70 70 71 70 72 71 71 71 71 70 70 70 69 69 69 69 69 69 71 73 74 75 74 75 75 75 75 75 75 74 75 76 76 75 75 75 75 75 74 74 73 74 73 71 70 68 61 63
22 23 24 24 25 28 30 29 27 24 22 26 33 32 31 36 41 45 46 46 47 48 49 50 51 52 54 55 56 57 58 58 58 58 58 58 59 60 61 61 62 63 64 66 66 67 68 68 69 70 70 70 71 71 71 72 71 71 70 69 69 69 69 69 69 69 69 71 73 74 74 74 75 74 75 75 75 75 75 75 76 76 76 75 76 75 74 75 75 75 74 73 72 72 65 60 63
23 24 24 24 25 26 27 29 26 25 29 24 30 31 31 30 35 44 45 45 46 47 48 49 51 52 52 54 55 56 57 58 58 58 58 58 59 59 60 61 62 63 64 65 66 67 68 68 69 69 70 71 71 71 71 71 71 70 70 70 70 69 69 69 69 69 69 71 72 73 74 74 75 74 74 75 75 75 75 76 76 76 76 76 76 75 75 75 75 75 75 73 72 72 69 61 61
28 29 26 25 26 26 28 28 27 25 24 22 25 29 30 30 31 40 43 44 45 46 48 49 51 51 52 53 55 56 57 58 58 58 58 58 58 59 60 61 61 63 64 65 66 66 68 68 69 69 70 71 71 71 71 71 71 70 70 70 70 70 69 69 70 70 69 71 70 73 74 74 74 74 74 74 74 74 76 76 76 76 76 76 77 75 75 75 75 75 74 73 72 71 69 63 62
29 29 30 28 28 28 28 27 26 25 25 23 25 24 28 29 34 36 41 42 44 45 47 49 50 51 52 53 55 56 57 58 58 58 58 58 58 59 60 61 61 62 64 66 66 67 67 68 69 69 69 70 70 71 71 71 70 71 70 70 70 69 70 70 69 69 69 70 69 71 73 73 74 74 74 74 74 74 75 76 76 76 75 76 77 76 76 75 75 74 74 74 72 71 69 68 62
30 29 28 26 28 28 28 28 26 26 20 21 20 20 23 22 33 34 38 39 43 45 47 49 50 51 52 53 55 57 57 58 58 58 58 58 58 59 60 60 61 63 64 65 66 66 67 68 69 69 69 70 70 70 70 70 70 70 70 70 70 69 70 70 69 68 70 70 68 70 72 73 73 73 74 74 74 74 74 76 76 76 75 76 77 76 76 76 75 74 74 73 72 70 69 69 68
29 26 27 26 25 24 26 29 29 22 20 22 20 17 15 15 26 31 38 39 41 44 45 48 49 50 52 53 55 57 58 59 59 59 58 58 59 59 60 60 61 63 64 65 65 66 68 68 68 69 69 70 70 70 70 70 70 70 70 70 70 70 69 70 68 68 69 70 68 69 71 72 73 73 73 74 74 73 74 76 76 76 76 76 76 76 76 76 75 75 74 73 72 70 69 70 68
28 25 24 23 23 24 19 20 19 20 19 24 19 16 17 16 27 35 30 35 38 43 45 47 49 50 52 53 55 57 58 59 59 59 59 58 59 59 60 61 61 63 64 65 65 66 67 68 68 68 68 69 70 70 70 69 70 70 70 69 70 70 69 71 69 68 68 70 69 68 71 72 72 73 73 73 73 73 74 75 76 76 76 76 76 76 76 76 75 74 74 73 72 70 69 67 68
25 24 22 21 19 18 18 21 19 17 19 20 14 16 13 26 22 24 28 30 33 39 45 47 49 51 52 53 55 56 58 59 59 59 59 59 59 59 60 61 62 64 64 65 66 66 67 68 68 68 69 69 69 70 69 69 69 70 70 70 70 70 69 70 71 68 68 69 70 69 70 71 72 72 72 72 73 73 73 74 75 76 76 76 76 76 76 75 75 74 74 73 72 70 70 68 67
22 23 20 21 20 18 18 16 13 13 17 16 13 11 18 11 20 22 23 28 31 38 44 47 49 51 52 53 55 56 57 59 60 60 60 59 60 60 61 61 62 63 64 65 66 66 67 68 68 68 69 69 69 69 69 69 69 69 70 70 70 70 70 69 71 71 69 69 70 70 70 71 72 72 73 73 73 73 73 74 75 75 76 76 76 76 76 75 75 74 74 73 72 72 70 70 68
20 20 20 20 19 27 16 21 17 18 18 12 16 15 20 16 30 34 26 26 31 42 45 47 49 51 52 54 55 56 57 58 60 60 60 60 60 60 61 61 62 63 65 65 66 67 67 68 68 68 69 69 69 70 69 69 69 69 70 70 70 70 71 70 70 71 72 70 70 71 70 71 72 72 73 73 73 73 73 73 74 75 75 75 76 76 75 75 75 74 74 74 72 74 71 70 69
20 19 17 18 18 16 24 32 26 25 21 11 31 27 16 14 15 10 21 24 25 39 47 48 49 51 53 54 55 56 56 58 59 60 60 61 60 61 61 62 62 63 64 65 66 67 67 68 68 68 68 69 69 70 69 69 69 69 69 70 70 70 70 70 69 69 71 71 71 71 71 71 72 73 73 73 73 73 73 73 74 74 74 75 75 75 75 74 75 74 74 74 73 73 73 70 70
19 18 19 18 19 19 18 15 24 18 14 18 18 11 20 12 14 23 13 19 19 27 46 49 50 51 53 54 55 56 57 58 59 60 61 61 61 61 61 62 62 63 64 65 66 67 68 68 68 68 68 69 69 70 69 69 69 69 69 70 70 70 70 70 70 69 70 72 71 71 72 72 72 73 73 73 73 73 73 75 74 74 74 75 75 75 75 74 74 75 74 74 73 73 73 72 71
18 19 17 17 15 15 20 22 16 12 13 17 17 16 20 18 18 23 10 10 15 20 40 49 50 50 52 54 55 56 57 57 58 59 60 61 61 61 61 61 63 63 65 65 66 67 68 68 69 69 68 69 69 70 70 70 69 69 70 70 70 70 70 70 71 71 70 71 72 71 71 72 72 73 74 74 73 73 73 74 74 74 74 74 75 74 75 74 74 74 75 74 74 74 73 73 72
18 17 16 20 17 17 16 15 25 16 20 15 15 18 13 21 14 15 10 10 10 14 19 49 50 51 52 53 55 56 57 57 58 59 60 61 61 61 61 61 62 63 64 66 66 67 68 69 69 69 69 69 69 70 70 70 69 69 70 70 70 70 71 71 71 71 71 71 72 72 71 71 72 73 73 74 74 73 73 73 74 74 74 74 74 75 74 74 74 73 74 74 74 74 73 73 73
16 14 15 16 20 19 18 21 13 21 24 15 16 14 20 23 18 13 12 11 11 12 15 45 51 51 52 53 54 55 56 57 57 58 59 60 61 61 61 61 62 63 65 66 66 67 68 69 69 69 69 69 69 70 70 70 70 70 70 70 70 70 70 71 71 71 71 71 72 73 72 71 72 73 73 74 74 73 73 73 73 74 74 74 74 74 74 74 74 74 74 74 74 74 73 73 73
17 14 13 15 14 15 12 15 16 18 18 21 17 13 27 21 17 16 15 13 10 11 15 36 51 51 52 52 53 55 56 56 57 58 59 60 61 62 62 62 62 63 64 66 67 67 68 68 69 69 69 69 69 70 70 70 71 70 70 70 70 70 70 71 71 71 71 71 72 73 73 72 71 72 73 73 74 74 74 73 73 73 74 74 74 74 74 74 74 74 74 74 74 74 73 73 73